Date,TemperatureHighF,TemperatureAvgF,TemperatureLowF,DewpointHighF,DewpointAvgF,DewpointLowF,HumidityHigh,HumidityAvg,HumidityLow,PressureMaxIn,PressureMinIn,WindSpeedMaxMPH,WindSpeedAvgMPH,GustSpeedMaxMPH,PrecipitationSumIn
2014-1-1,20,15,12,5,1,-3,63,52,44,30.31,30.13,15,5,18,0.00
2014-1-2,14,10,2,4,0,-8,63,63,63,30.19,29.92,18,8,20,0.55
2014-1-3,5,1,-5,-4,-8,-14,63,63,63,30.31,29.95,13,5,14,0.55
2014-1-4,35,23,4,9,4,-6,63,43,32,30.19,29.89,22,8,23,0.00
2014-1-5,42,33,27,34,15,7,75,48,39,30.04,29.39,20,4,22,0.24
2014-1-6,42,22,0,36,13,-8,81,68,52,29.75,29.21,33,12,38,0.16
2014-1-7,2,-1,-6,-6,-9,-14,68,68,68,30.16,29.75,30,13,31,0.00
2014-1-8,16,9,2,10,2,-6,79,71,68,30.34,30.16,18,6,18,0.00
2014-1-9,18,12,5,12,5,-2,79,73,61,30.54,30.28,10,2,11,0.00
2014-1-10,38,30,16,38,27,9,98,91,76,30.28,29.83,15,3,18,0.00
2014-1-11,48,40,34,47,39,27,98,94,76,29.83,29.21,28,9,37,0.91
2014-1-12,34,32,30,27,24,20,78,72,60,29.89,29.42,23,8,28,0.00
2014-1-13,48,41,32,37,25,19,84,54,41,29.86,29.60,20,8,20,0.00
2014-1-14,42,36,27,40,29,17,91,76,59,29.78,29.60,15,4,15,0.04
2014-1-15,31,28,26,18,16,12,66,58,51,29.92,29.72,22,6,23,0.00
2014-1-16,29,26,23,14,12,9,64,53,44,29.89,29.78,13,3,13,0.00
2014-1-17,36,30,24,19,14,10,64,51,41,29.78,29.72,28,5,28,0.55
2014-1-18,28,20,17,21,8,4,75,59,54,29.83,29.75,24,9,25,0.00
2014-1-19,28,22,16,15,8,2,58,55,51,29.78,29.42,32,11,32,0.55
2014-1-20,30,20,9,23,9,-5,76,60,47,29.95,29.45,23,7,32,0.00
2014-1-21,9,5,0,-5,-8,-13,54,54,54,30.04,29.92,14,4,14,0.00
2014-1-22,7,2,-8,-6,-10,-20,54,54,54,30.01,29.92,10,3,13,0.00
2014-1-23,11,6,2,-2,-7,-11,54,54,54,30.25,29.95,15,5,15,0.00
2014-1-24,16,8,-1,0,-7,-13,54,49,40,30.25,29.60,24,10,26,0.00
2014-1-25,25,18,8,13,4,-3,69,56,44,29.60,29.18,23,10,25,0.00
2014-1-26,27,11,2,14,0,-8,63,58,49,29.69,29.39,23,7,26,0.00
2014-1-27,29,15,2,14,-1,-15,68,49,44,30.04,29.21,26,9,28,0.00
2014-1-28,6,1,-3,-11,-15,-19,44,44,44,30.22,30.04,25,9,26,0.00
2014-1-29,12,6,-2,-6,-11,-18,44,44,44,30.16,29.95,31,11,33,0.00
2014-1-30,30,19,8,4,-2,-10,46,40,33,30.16,29.78,17,7,23,0.00
2014-1-31,33,30,28,17,12,4,59,46,32,30.10,29.80,29,7,29,0.00
2014-2-1,38,31,22,32,21,10,82,66,53,30.13,29.78,12,3,13,0.00
2014-2-2,38,30,24,34,22,12,85,74,58,30.13,29.78,13,1,13,0.04
2014-2-3,24,20,11,12,7,-2,62,56,47,30.31,30.13,0,0,0,0.00
2014-2-4,24,18,9,9,4,-4,66,54,46,30.40,30.16,0,0,0,0.00
2014-2-5,23,20,13,17,12,1,80,69,58,30.19,29.69,17,2,17,0.00
2014-2-6,19,12,3,5,0,-8,62,57,48,30.25,30.10,20,5,24,0.00
2014-2-7,15,9,6,3,-3,-6,58,57,56,30.19,30.10,32,10,32,0.00
2014-2-8,16,10,3,1,-4,-9,57,52,45,30.22,30.13,22,6,22,0.00
2014-2-9,20,13,4,8,-1,-11,65,54,48,30.13,29.86,12,4,15,0.00
2014-2-10,19,13,8,4,0,-6,62,57,45,30.22,29.98,17,6,17,0.00
2014-2-11,16,10,0,0,-6,-17,53,49,44,30.42,30.22,14,4,17,0.00
2014-2-12,21,7,-10,2,-10,-26,46,44,42,30.40,30.07,12,4,14,0.00
2014-2-13,25,16,5,14,1,-13,72,52,43,30.07,29.48,11,3,11,0.00
2014-2-14,28,24,21,17,14,9,76,65,46,29.69,29.39,26,7,26,0.00
2014-2-15,27,22,12,16,10,1,71,61,47,29.92,29.69,15,6,17,0.00
2014-2-16,18,12,7,4,0,-6,60,57,50,30.19,29.89,11,5,13,0.00
2014-2-17,25,11,-1,5,-4,-13,55,50,40,30.37,29.78,22,4,22,0.00
2014-2-18,27,24,21,17,10,4,68,55,41,29.95,29.69,26,10,27,0.00
2014-2-19,44,35,21,27,20,10,75,56,41,30.01,29.57,26,8,26,0.00
2014-2-20,37,33,29,32,24,20,93,70,50,30.07,29.69,13,5,14,0.00
2014-2-21,42,35,33,42,29,16,98,78,49,29.72,29.48,26,9,27,0.04
2014-2-22,38,36,33,18,13,0,50,39,30,29.89,29.72,32,13,34,0.12
2014-2-23,35,31,24,17,12,7,55,45,34,29.89,29.83,25,9,25,0.08
2014-2-24,24,20,16,11,3,0,57,48,43,30.01,29.83,19,7,25,0.00
2014-2-25,20,16,14,4,1,-3,58,50,43,29.98,29.80,19,6,19,0.00
2014-2-26,17,9,6,8,-5,-8,67,53,52,29.92,29.66,26,7,26,0.00
2014-2-27,18,9,2,4,-4,-11,57,53,46,30.04,29.45,23,8,23,0.00
2014-2-28,12,5,-3,-2,-8,-16,54,54,54,30.31,30.04,11,4,12,0.00
2014-3-1,36,22,7,14,4,-6,63,47,32,30.13,29.95,17,5,19,0.08
2014-3-2,18,13,6,7,-2,-10,63,52,44,30.16,30.10,15,5,15,0.00
2014-3-3,9,5,-1,-8,-12,-17,45,45,45,30.31,30.13,15,6,15,0.00
2014-3-4,16,9,-2,2,-7,-18,56,47,38,30.31,30.13,10,4,10,0.00
2014-3-5,20,15,6,6,1,-9,62,53,46,30.48,30.13,14,3,15,0.00
2014-3-6,22,12,-1,3,-5,-15,50,46,42,30.51,30.19,12,4,12,0.00
2014-3-7,40,27,13,17,8,-4,53,45,39,30.19,29.80,8,3,8,0.08
2014-3-8,34,31,24,24,19,11,76,60,50,29.98,29.80,13,5,13,0.00
2014-3-9,32,24,16,13,8,3,63,51,40,30.07,29.72,26,8,26,0.00
2014-3-10,41,37,32,33,25,13,77,62,44,29.75,29.48,27,8,29,0.00
2014-3-11,48,40,36,33,31,28,80,69,50,29.69,29.51,17,6,17,0.00
2014-3-12,39,25,11,34,22,7,99,88,80,29.69,29.36,20,8,24,0.04
2014-3-13,14,10,4,9,6,0,82,82,82,30.01,29.69,22,8,22,0.04
2014-3-14,49,34,11,36,19,3,84,55,41,29.98,29.54,33,9,33,0.39
2014-3-15,41,33,22,37,23,7,87,68,48,30.10,29.54,29,9,29,0.04
2014-3-16,22,15,10,9,0,-7,65,51,46,30.31,30.10,17,7,19,0.04
2014-3-17,25,17,7,8,1,-9,60,49,46,30.16,29.95,12,4,13,0.04
2014-3-18,41,30,16,21,14,3,64,51,45,30.07,29.98,11,4,11,0.04
2014-3-19,48,40,30,36,25,14,87,57,45,30.01,29.60,18,8,18,0.16
2014-3-20,40,34,30,39,28,20,97,82,52,29.86,29.60,23,9,26,0.08
2014-3-21,36,30,25,21,17,12,69,59,48,30.01,29.86,15,5,15,0.08
2014-3-22,39,34,30,31,23,18,81,65,54,30.01,29.51,30,8,30,0.04
2014-3-23,30,21,16,21,7,-1,70,54,45,30.19,30.01,17,8,17,0.08
2014-3-24,24,19,14,7,4,0,65,53,43,30.19,30.04,14,5,14,0.08
2014-3-25,35,25,16,15,10,2,63,52,36,30.04,29.80,16,6,20,0.08
2014-3-26,24,20,14,14,6,0,64,55,42,30.19,29.92,20,7,20,0.08
2014-3-27,57,25,12,26,8,-3,66,50,33,30.22,29.86,15,5,15,0.00
2014-3-28,53,42,36,47,35,24,89,74,56,30.13,29.66,30,9,33,0.12
2014-3-29,36,33,30,30,27,25,87,79,72,30.16,29.89,17,4,18,0.12
2014-3-30,39,32,29,29,26,22,87,77,65,30.01,29.86,14,2,15,0.12
2014-3-31,42,32,24,30,23,16,77,68,56,30.16,30.01,10,2,10,0.63
2014-4-1,49,40,30,35,28,21,71,62,55,30.13,29.75,19,6,19,0.12
2014-4-2,45,38,32,30,26,21,76,61,50,30.16,29.89,20,7,22,0.12
2014-4-3,40,33,25,28,22,17,75,64,57,30.16,29.98,14,4,14,0.12
2014-4-4,49,41,32,47,35,20,92,80,61,29.95,29.42,32,8,34,0.67
2014-4-5,39,34,30,33,25,19,83,68,55,30.10,29.60,27,10,32,0.12
2014-4-6,50,38,28,30,24,20,75,59,42,30.16,30.04,13,4,13,0.00
2014-4-7,48,38,31,36,28,20,89,67,49,30.07,29.45,17,5,17,0.47
2014-4-8,46,39,37,45,36,34,95,90,85,29.54,29.21,18,6,25,0.20
2014-4-9,48,40,31,33,26,20,85,60,37,29.95,29.75,15,6,17,0.00
2014-4-10,67,52,34,48,32,22,83,50,32,29.95,29.66,29,10,29,0.20
2014-4-11,56,49,39,47,38,27,85,68,47,30.01,29.80,12,3,13,0.20
2014-4-12,65,50,36,43,37,28,83,62,37,30.13,29.98,12,5,12,0.20
2014-4-13,77,60,44,56,48,35,83,65,45,29.98,29.78,21,7,21,0.20
2014-4-14,76,63,49,57,52,45,90,69,46,29.78,29.54,28,8,28,0.31
2014-4-15,49,34,24,45,27,7,88,76,49,30.07,29.54,24,7,24,0.28
2014-4-16,38,29,22,18,13,7,60,50,41,30.45,30.07,20,6,23,0.20
2014-4-17,56,41,27,33,23,13,59,48,37,30.51,30.31,15,6,15,0.20
2014-4-18,63,50,40,39,32,23,74,52,38,30.31,30.13,14,6,15,0.20
2014-4-19,50,42,32,36,29,22,76,61,44,30.37,30.22,12,5,12,0.00
2014-4-20,68,50,34,39,30,19,60,48,31,30.37,30.10,13,4,15,0.00
2014-4-21,73,60,44,42,37,30,68,44,29,30.10,29.72,15,5,15,0.00
2014-4-22,61,53,40,53,44,33,89,72,42,29.72,29.54,17,7,17,0.24
2014-4-23,44,38,35,35,29,17,87,72,45,29.98,29.66,18,8,18,0.20
2014-4-24,52,41,30,24,20,16,62,44,29,30.10,29.98,17,5,17,0.00
2014-4-25,58,48,36,44,30,21,82,51,35,29.98,29.57,26,6,26,0.16
2014-4-26,47,42,38,44,37,32,90,82,73,29.98,29.69,19,7,19,0.12
2014-4-27,52,43,37,36,32,25,79,64,47,30.16,29.98,15,5,15,0.00
2014-4-28,55,45,33,37,30,23,75,56,44,30.16,29.95,19,5,21,0.00
2014-4-29,52,48,45,47,40,31,90,75,55,30.01,29.86,27,10,27,0.31
2014-5-1,56,52,49,53,46,36,97,80,53,29.75,29.69,22,9,25,0.00
2014-5-2,53,48,44,43,39,36,84,72,61,29.78,29.66,24,9,27,0.00
2014-5-3,59,50,44,46,42,38,82,74,61,29.78,29.60,21,7,21,0.08
2014-5-4,55,46,40,38,35,30,80,65,44,29.92,29.66,26,10,30,0.00
2014-5-5,57,55,46,37,34,32,58,46,43,29.98,29.92,14,8,15,0.00
2014-5-6,59,52,43,38,34,28,67,51,36,30.10,29.89,15,4,16,0.00
2014-5-7,63,51,41,43,34,27,63,54,44,30.19,30.07,16,5,16,0.00
2014-5-8,74,60,49,58,47,35,80,63,51,30.04,29.95,13,4,14,0.00
2014-5-9,82,68,54,71,59,44,97,75,46,30.01,29.78,29,5,31,0.24
2014-5-10,67,61,52,60,48,36,87,64,45,29.92,29.75,24,9,25,0.00
2014-5-11,73,60,47,44,39,35,71,49,31,30.07,29.89,14,4,15,0.00
2014-5-12,80,66,52,63,53,39,80,64,52,30.04,29.98,11,2,11,0.00
2014-5-13,85,70,60,70,63,56,95,78,55,30.07,29.92,20,3,20,0.28
2014-5-14,79,68,63,70,64,58,98,88,67,30.07,29.98,13,5,17,0.67
2014-5-15,78,68,53,67,61,48,98,79,52,30.01,29.80,23,9,24,0.00
2014-5-16,53,49,43,49,43,35,91,80,62,29.95,29.83,21,6,21,1.02
2014-5-17,58,48,42,41,37,32,78,65,49,30.13,29.92,14,4,15,1.02
2014-5-18,62,51,41,42,37,30,82,61,38,30.22,30.13,14,5,14,0.00
2014-5-19,67,55,45,48,39,31,66,55,46,30.22,30.10,19,6,19,0.00
2014-5-20,71,58,46,51,43,33,78,59,43,30.13,29.95,11,4,11,0.00
2014-5-21,72,63,54,63,56,47,89,78,68,29.95,29.78,13,4,13,0.04
2014-5-22,70,62,53,61,55,47,96,79,63,29.89,29.75,20,4,20,0.04
2014-5-23,58,53,50,50,47,44,89,80,76,30.01,29.86,16,7,19,0.00
2014-5-24,73,60,50,56,50,45,91,71,50,30.10,30.01,13,6,14,0.00
2014-5-25,76,64,48,52,47,42,79,56,36,30.10,30.01,17,6,17,0.00
2014-5-26,80,69,58,57,50,42,60,51,41,30.01,29.89,23,8,23,0.04
2014-5-27,81,72,65,66,59,51,84,65,55,29.89,29.75,23,7,24,0.04
2014-5-28,68,60,55,62,52,48,85,75,63,30.10,29.80,13,6,13,0.00
2014-5-29,67,59,52,57,52,45,82,75,67,30.10,30.04,11,3,13,0.00
2014-5-30,74,62,49,56,50,43,88,68,51,30.13,30.07,15,3,15,0.00
2014-5-31,73,62,48,50,43,39,82,54,31,30.25,30.13,15,3,16,0.00
2014-6-1,82,66,47,71,49,37,75,55,33,30.25,30.04,12,3,13,0.00
2014-6-2,86,75,63,70,61,49,75,63,54,30.07,29.89,15,6,17,0.00
2014-6-3,80,72,60,74,64,49,97,77,49,29.89,29.75,26,8,29,0.35
2014-6-4,72,63,53,56,50,46,77,65,50,29.89,29.75,16,4,17,0.00
2014-6-5,63,56,50,53,47,43,83,72,61,29.86,29.72,15,4,15,0.00
2014-6-6,75,63,50,53,48,43,78,61,43,29.98,29.86,17,4,17,0.00
2014-6-7,84,66,50,53,48,42,77,54,31,30.04,29.92,12,3,13,0.00
2014-6-8,80,66,55,60,54,45,95,69,46,29.92,29.78,13,3,13,0.55
2014-6-9,75,66,56,66,60,54,96,83,62,29.95,29.86,13,3,14,0.00
2014-6-10,78,68,59,66,61,55,91,77,62,29.95,29.89,11,3,12,0.00
2014-6-11,84,72,65,71,65,57,91,81,59,29.95,29.80,15,4,17,0.35
2014-6-12,79,71,67,69,64,61,96,81,68,29.83,29.75,16,6,16,0.24
2014-6-13,76,68,58,72,64,49,97,87,71,29.86,29.72,17,5,17,0.04
2014-6-14,66,58,52,54,48,42,78,69,61,30.07,29.86,15,5,15,0.00
2014-6-15,77,63,50,59,52,44,88,68,50,30.16,30.07,10,2,10,0.00
2014-6-16,85,70,53,70,59,46,85,71,57,30.07,29.95,17,4,17,0.00
2014-6-17,88,76,64,74,66,59,95,73,49,30.04,29.75,24,6,28,0.94
2014-6-18,69,67,64,68,65,62,95,94,91,29.89,29.80,15,5,17,0.00
2014-6-19,76,70,56,53,47,42,67,44,30,30.10,30.07,11,3,11,0.00
2014-6-20,75,63,50,52,47,42,75,57,42,30.10,29.98,10,3,11,0.00
2014-6-21,77,65,53,55,48,41,69,55,38,29.98,29.89,15,2,15,0.00
2014-6-22,81,67,53,56,50,45,78,57,39,29.98,29.92,10,2,11,0.00
2014-6-23,88,73,55,67,58,46,77,61,46,29.98,29.89,14,3,14,0.00
2014-6-24,86,76,69,73,67,62,94,74,59,29.92,29.83,17,6,18,0.20
2014-6-25,73,70,67,71,68,66,97,95,93,29.92,29.83,10,3,11,0.20
2014-6-26,82,72,65,67,63,58,95,76,49,30.04,29.89,12,3,13,0.00
2014-6-27,86,73,61,68,60,53,89,66,46,30.13,30.01,10,2,10,0.00
2014-6-28,90,77,63,69,64,54,78,65,49,30.19,30.07,10,3,10,0.00
2014-6-29,88,78,70,74,67,60,83,71,58,30.10,29.98,14,5,14,0.04
2014-6-30,92,80,68,74,68,63,85,70,47,29.98,29.80,13,5,13,0.00
2014-7-1,88,80,74,72,67,62,80,66,47,29.80,29.66,26,8,27,0.00
2014-7-2,86,77,71,71,64,59,80,67,44,29.89,29.72,17,5,21,0.00
2014-7-3,75,69,61,69,64,57,94,85,68,29.98,29.86,13,2,17,0.35
2014-7-4,73,64,56,57,52,47,92,68,43,30.16,29.98,17,6,17,0.00
2014-7-5,80,67,54,56,50,46,77,57,34,30.19,30.04,17,5,18,0.00
2014-7-6,83,71,56,60,54,46,73,57,43,30.04,29.78,17,6,19,0.00
2014-7-7,78,71,67,71,65,54,95,82,60,29.78,29.63,22,8,23,0.63
2014-7-8,81,72,66,72,68,61,95,87,68,29.69,29.48,19,7,22,0.47
2014-7-9,72,65,60,65,60,56,95,83,67,29.95,29.66,11,4,15,0.12
2014-7-10,75,64,52,62,55,49,96,74,49,30.13,29.95,12,2,12,0.00
2014-7-11,83,68,54,62,55,47,86,65,48,30.19,30.07,9,2,11,0.00
2014-7-12,86,72,60,65,59,54,85,65,44,30.13,29.95,13,2,15,0.00
2014-7-13,78,73,70,74,66,60,95,81,65,29.95,29.72,16,6,17,0.47
2014-7-14,79,72,64,69,63,54,94,75,61,29.83,29.72,9,3,10,0.00
2014-7-15,77,70,62,70,61,52,97,76,48,29.72,29.63,22,5,22,0.63
2014-7-16,74,65,57,57,53,50,80,67,50,29.86,29.72,17,5,17,0.00
2014-7-17,75,65,56,56,52,50,83,66,47,30.04,29.83,13,4,15,0.00
2014-7-18,79,67,54,59,54,47,83,64,47,30.13,30.04,7,2,8,0.00
2014-7-19,75,67,58,67,60,51,96,80,61,30.10,30.01,10,2,12,0.35
2014-7-20,78,69,63,69,65,62,97,88,71,30.01,29.92,10,2,10,0.08
2014-7-21,85,74,64,71,65,60,89,76,51,30.01,29.95,11,3,13,0.00
2014-7-22,88,75,60,70,64,55,87,71,51,30.01,29.80,13,2,13,0.00
2014-7-23,78,70,64,70,64,58,93,81,76,29.83,29.72,16,5,16,0.24
2014-7-24,74,65,57,58,52,49,84,66,46,29.89,29.80,13,4,15,0.00
2014-7-25,79,65,52,60,53,46,82,66,49,29.89,29.80,13,4,15,0.00
2014-7-26,81,70,60,64,58,51,77,67,46,29.80,29.60,14,4,14,0.00
2014-7-27,83,74,64,69,64,61,93,73,50,29.60,29.42,16,4,17,1.06
2014-7-28,64,61,56,64,59,54,98,96,92,29.66,29.39,17,5,19,1.38
2014-7-29,69,60,53,58,53,51,96,79,58,29.78,29.66,9,3,11,0.00
2014-7-30,73,62,56,61,56,52,90,81,60,29.78,29.75,17,4,17,0.08
2014-7-31,76,69,59,55,52,50,73,56,46,29.86,29.80,17,5,17,0.08
2014-8-1,84,70,59,67,60,51,88,71,52,29.89,29.83,14,3,14,0.08
2014-8-2,83,71,63,68,63,58,98,79,54,29.92,29.83,15,2,15,1.30
2014-8-3,69,66,64,68,65,63,98,97,96,29.89,29.80,6,1,6,0.04
2014-8-4,83,70,60,69,64,58,97,81,52,29.86,29.80,12,4,12,0.08
2014-8-5,73,67,61,67,61,56,88,82,72,29.83,29.75,11,2,11,0.08
2014-8-6,76,67,60,63,58,52,93,74,48,29.78,29.72,11,2,12,0.08
2014-8-7,75,66,58,62,55,51,88,70,49,29.83,29.75,13,3,13,0.08
2014-8-8,77,66,55,61,55,49,86,70,52,29.89,29.83,13,2,13,0.08
2014-8-9,81,67,54,60,55,48,85,66,44,29.89,29.86,8,2,9,0.08
2014-8-10,84,70,56,64,58,50,89,68,45,29.89,29.80,11,2,11,0.00
2014-8-11,84,72,61,67,59,54,83,66,46,29.83,29.63,16,5,17,0.00
2014-8-12,77,70,65,71,64,55,95,83,58,29.63,29.48,21,8,21,0.67
2014-8-13,62,59,56,54,51,48,76,74,71,29.63,29.60,15,5,15,0.00
2014-8-14,66,59,54,54,49,43,84,70,55,29.63,29.57,16,5,19,0.67
2014-8-15,70,61,54,54,50,46,76,67,49,29.69,29.63,17,5,17,0.67
2014-8-16,69,62,55,58,53,47,83,72,58,29.69,29.57,19,7,20,0.67
2014-8-17,72,66,60,60,58,55,90,77,61,29.72,29.57,13,4,13,0.00
2014-8-18,73,64,55,58,55,49,88,73,56,29.72,29.63,10,3,11,0.67
2014-8-19,81,66,54,66,57,48,86,73,49,29.63,29.57,9,2,10,0.67
2014-8-20,80,70,62,70,64,56,89,80,65,29.66,29.57,11,2,11,0.67
2014-8-21,81,72,65,69,64,61,92,76,56,29.72,29.66,15,4,18,0.67
2014-8-22,79,70,63,68,64,58,92,81,68,29.75,29.69,10,2,13,0.00
2014-8-23,76,70,64,68,64,58,93,84,73,29.86,29.72,12,3,13,0.00
2014-8-24,80,69,58,65,60,53,92,74,54,29.89,29.86,10,2,12,0.00
2014-8-25,82,70,59,65,59,52,85,69,49,29.92,29.80,10,2,12,0.00
2014-8-26,86,74,61,69,63,55,82,69,55,29.86,29.72,14,6,16,0.00
2014-8-27,77,71,61,68,61,53,88,72,53,29.78,29.72,14,4,15,0.67
2014-8-28,70,62,55,56,50,46,85,67,50,29.86,29.75,16,4,17,0.67
2014-8-29,76,63,50,59,52,43,83,68,48,29.92,29.83,10,2,10,0.67
2014-8-30,87,73,57,70,62,51,81,69,53,29.83,29.66,13,5,16,0.67
2014-8-31,76,74,69,69,68,65,90,82,75,29.72,29.66,17,7,19,0.67
2014-9-1,84,73,66,77,69,62,93,86,62,29.72,29.60,11,3,12,0.16
2014-9-2,80,73,66,71,68,63,94,84,73,29.63,29.54,17,6,17,0.12
2014-9-3,79,69,61,66,60,56,94,75,48,29.83,29.66,9,3,11,0.00
2014-9-4,83,71,59,68,60,54,92,72,50,29.83,29.75,12,3,13,0.00
2014-9-5,88,77,66,72,65,60,79,67,51,29.83,29.63,21,6,22,0.00
2014-9-6,72,66,56,67,60,46,96,83,62,29.78,29.57,14,4,15,0.28
2014-9-7,70,60,50,55,49,44,84,69,50,29.92,29.78,10,3,12,0.00
2014-9-8,76,63,49,59,52,42,88,68,51,29.95,29.86,13,3,13,0.00
2014-9-9,76,67,58,63,57,52,79,71,62,29.89,29.78,12,5,14,0.00
2014-9-10,78,70,63,66,62,57,85,76,66,29.78,29.39,18,6,25,0.00
2014-9-11,72,64,54,70,59,47,96,85,75,29.80,29.33,22,8,28,0.24
2014-9-12,57,52,46,48,44,38,87,75,60,29.92,29.80,10,3,10,0.00
2014-9-13,62,51,45,55,45,38,88,79,74,29.92,29.66,15,3,20,0.04
2014-9-14,60,51,39,47,41,33,85,71,56,29.98,29.83,6,1,8,0.00
2014-9-15,67,57,48,52,48,42,85,71,55,29.83,29.66,11,2,13,0.04
2014-9-16,62,56,49,53,48,42,91,75,50,29.69,29.63,13,3,13,0.12
2014-9-17,66,55,44,51,45,38,84,70,50,29.95,29.51,14,4,17,0.00
2014-9-18,59,50,40,54,44,34,89,81,75,30.19,29.95,11,3,14,0.00
2014-9-19,61,50,39,49,41,32,85,71,55,30.28,30.07,13,3,14,0.00
2014-9-20,76,67,55,61,56,49,81,70,53,30.07,29.80,22,9,22,0.00
2014-9-21,73,67,58,68,59,51,92,76,58,29.80,29.54,20,8,27,0.20
2014-9-22,58,51,46,52,42,38,88,72,56,30.16,29.66,17,6,19,0.08
2014-9-23,67,55,44,52,45,38,82,71,53,30.34,30.16,14,5,15,0.00
2014-9-24,72,59,45,56,49,39,91,70,52,30.45,30.34,8,2,11,0.00
2014-9-25,71,59,50,56,50,44,89,73,52,30.40,30.25,10,2,11,0.00
2014-9-26,72,59,46,56,49,40,89,72,54,30.28,30.22,8,1,10,0.00
2014-9-27,74,61,48,59,51,43,87,73,48,30.28,30.16,8,2,8,0.00
2014-9-28,76,63,51,60,54,47,90,74,53,30.16,30.01,6,2,10,0.00
2014-9-29,76,64,54,60,55,49,90,74,52,30.01,29.86,10,2,12,0.00
2014-9-30,72,61,52,60,54,48,91,79,56,29.95,29.83,11,3,12,0.00
2014-10-1,67,60,57,61,58,55,95,91,79,30.04,29.95,10,3,11,0.00
2014-10-2,72,62,51,62,55,48,96,79,58,30.07,29.98,10,3,10,0.00
2014-10-3,71,63,56,58,55,51,84,76,60,29.95,29.54,26,9,26,0.00
2014-10-4,63,52,39,58,47,33,94,83,68,29.66,29.48,22,6,25,0.12
2014-10-5,48,44,38,43,37,31,84,77,65,29.80,29.66,13,5,15,0.04
2014-10-6,65,53,42,52,43,32,90,70,53,29.80,29.72,16,6,17,0.35
2014-10-7,64,58,52,53,49,44,93,73,51,29.83,29.66,23,6,23,0.20
2014-10-8,57,52,47,54,46,30,94,80,48,29.89,29.63,31,7,31,0.16
2014-10-9,56,45,34,38,34,30,86,67,48,30.01,29.86,24,5,24,0.00
2014-10-10,58,46,37,42,37,31,85,71,51,30.07,30.01,14,3,14,0.00
2014-10-11,57,44,34,41,35,29,88,72,50,30.16,30.04,15,2,15,0.00
2014-10-12,54,40,29,39,32,25,91,75,52,30.22,30.10,10,2,10,0.00
2014-10-13,73,57,35,61,51,31,92,81,64,30.10,29.98,13,4,14,0.00
2014-10-14,78,68,57,62,59,54,90,75,56,29.98,29.78,30,10,30,0.00
2014-10-15,70,62,56,62,58,54,95,85,74,29.83,29.72,16,4,17,0.00
2014-10-16,69,59,52,58,54,50,96,84,61,29.75,29.60,15,5,16,0.00
2014-10-17,63,56,51,55,51,49,95,83,64,29.63,29.51,18,6,19,0.00
2014-10-18,58,49,41,51,44,33,91,82,71,29.89,29.48,22,7,22,0.00
2014-10-19,47,39,31,34,29,26,83,68,52,30.04,29.89,15,5,16,0.00
2014-10-20,57,46,32,45,39,28,86,76,59,29.95,29.78,12,3,13,0.00
2014-10-21,54,49,44,51,46,42,95,91,84,30.04,29.72,15,4,17,0.04
2014-10-22,47,44,43,44,42,41,95,93,90,30.16,30.04,12,6,17,0.00
2014-10-23,58,47,36,52,40,34,96,79,52,30.10,29.95,20,6,20,0.00
2014-10-24,54,46,38,43,39,35,91,76,53,29.98,29.86,15,5,15,0.00
2014-10-25,65,53,46,53,48,38,94,82,55,29.89,29.54,24,7,27,0.00
2014-10-26,52,46,37,40,36,31,80,67,61,29.86,29.60,20,6,22,0.00
2014-10-27,56,43,30,41,35,27,92,74,54,29.98,29.78,8,2,8,0.00
2014-10-28,74,62,52,59,54,41,92,76,54,29.80,29.69,24,8,24,0.04
2014-10-29,56,50,44,52,40,33,89,70,55,29.92,29.80,17,5,17,0.00
2014-10-30,50,43,36,38,34,31,86,70,55,30.01,29.92,13,3,13,0.00
2014-10-31,52,44,39,41,37,33,86,78,63,29.98,29.86,8,2,8,0.04
2014-11-1,42,36,32,38,34,30,92,90,86,30.10,29.92,16,6,17,0.12
2014-11-2,38,34,29,32,27,18,92,76,52,30.19,30.10,20,7,21,0.00
2014-11-3,55,45,33,39,27,19,73,49,33,30.13,29.98,21,7,24,0.00
2014-11-4,65,56,47,49,35,24,86,48,31,30.01,29.83,23,9,24,0.00
2014-11-5,54,45,33,48,36,28,86,72,57,30.07,29.86,32,6,32,0.00
2014-11-6,46,40,32,41,36,29,89,85,75,30.04,29.69,13,3,13,0.00
2014-11-7,41,34,28,38,32,24,92,89,85,29.95,29.69,21,5,22,0.04
2014-11-8,43,36,25,41,34,21,94,90,82,29.92,29.66,19,5,26,0.00
2014-11-9,46,39,35,35,30,26,82,69,58,29.89,29.75,13,5,15,0.00
2014-11-10,56,46,37,38,33,28,73,60,50,30.01,29.83,17,4,20,0.00
2014-11-11,61,52,42,48,38,32,77,58,49,29.83,29.69,17,6,17,0.00
2014-11-12,55,40,33,49,28,17,82,62,50,30.10,29.72,22,7,24,0.00
2014-11-13,38,32,24,25,21,17,78,64,51,30.07,29.98,13,5,14,0.00
2014-11-14,36,28,21,24,17,14,76,62,50,30.16,29.95,15,6,16,0.00
2014-11-15,38,30,20,25,20,13,77,66,52,30.25,30.16,13,5,15,0.00
2014-11-16,41,34,29,27,18,15,76,53,40,30.16,29.89,17,6,17,0.00
2014-11-17,40,33,20,31,27,12,85,80,71,29.89,29.48,21,3,21,0.00
2014-11-18,21,18,14,15,12,8,79,77,70,29.92,29.63,22,11,26,0.00
2014-11-19,30,19,10,24,11,3,80,72,55,30.07,29.69,19,8,20,0.00
2014-11-20,29,24,16,23,14,5,83,67,49,29.95,29.69,20,8,26,0.00
2014-11-21,30,21,14,16,10,3,71,62,52,30.37,29.95,17,6,17,0.00
2014-11-22,43,34,21,40,24,8,90,67,43,30.31,29.92,24,10,26,0.00
2014-11-23,51,46,42,39,36,34,89,71,60,30.01,29.60,23,6,24,0.00
2014-11-24,66,52,41,53,44,31,87,75,56,29.63,29.24,28,12,32,0.08
2014-11-25,42,38,32,33,26,20,79,63,51,30.13,29.63,30,10,30,0.00
2014-11-26,34,31,28,27,23,17,81,72,58,30.16,29.98,10,2,10,0.00
2014-11-27,35,30,26,24,22,20,79,73,58,30.04,29.95,11,3,11,0.00
2014-11-28,29,24,20,22,13,8,80,63,49,30.19,30.04,20,5,20,0.00
2014-11-29,41,32,24,29,20,14,69,61,56,30.13,29.80,17,6,18,0.00
2014-11-30,57,51,41,51,43,29,93,73,62,29.86,29.75,19,8,20,0.00
2014-12-1,53,39,34,51,35,28,93,85,78,30.19,29.86,16,6,17,0.00
2014-12-2,37,35,32,32,29,25,79,79,77,30.16,29.98,14,6,15,0.00
2014-12-3,39,35,29,34,28,15,87,77,56,30.13,29.89,21,7,23,0.00
2014-12-4,32,26,19,16,14,10,79,61,50,30.40,30.13,15,5,18,0.00
2014-12-5,40,31,19,30,22,14,79,72,57,30.40,30.16,11,3,12,0.00
2014-12-6,37,35,27,34,30,21,90,84,74,30.42,30.10,13,3,13,0.00
2014-12-7,28,23,20,21,13,10,81,66,52,30.66,30.42,13,5,13,0.00
2014-12-8,37,29,21,24,14,8,68,53,32,30.51,30.13,20,6,23,0.00
2014-12-9,44,35,30,32,28,23,85,75,61,30.13,29.98,12,5,13,0.00
2014-12-10,32,28,24,29,23,18,86,81,71,30.01,29.75,21,8,21,0.00
2014-12-11,30,25,22,21,18,16,84,77,63,29.86,29.66,13,4,15,0.00
2014-12-12,32,28,24,27,21,18,84,77,65,30.04,29.86,13,5,17,0.00
2014-12-13,34,32,31,31,28,26,90,85,80,30.04,29.86,22,7,24,0.00
2014-12-14,38,36,34,34,32,31,91,88,83,30.01,29.86,11,4,13,0.00
2014-12-15,40,36,34,33,32,31,89,86,79,30.04,29.89,9,2,10,0.00
2014-12-16,43,38,31,40,35,28,91,87,81,29.92,29.69,17,4,20,0.00
2014-12-17,42,36,29,39,32,24,90,84,78,29.92,29.72,23,9,26,0.00
2014-12-18,33,30,27,26,23,20,84,78,70,30.01,29.92,24,6,24,0.00
2014-12-19,30,26,23,22,18,16,79,72,62,30.19,30.01,14,5,15,0.00
2014-12-20,33,29,24,20,19,15,71,65,57,30.22,30.16,11,2,11,0.00
2014-12-21,34,29,21,22,19,15,81,68,57,30.25,30.19,10,2,10,0.00
2014-12-22,36,30,24,25,21,16,73,67,61,30.22,29.98,15,5,15,0.00
2014-12-23,50,41,31,43,36,25,88,82,67,29.98,29.80,13,4,15,0.00
2014-12-24,57,50,45,49,45,40,88,83,75,29.80,29.24,28,9,34,0.00
2014-12-25,45,39,37,40,31,26,86,72,62,30.07,29.33,32,12,39,0.00
2014-12-26,44,37,30,30,27,23,79,68,56,30.16,30.04,20,6,20,0.00
2014-12-27,53,45,33,41,35,28,79,69,60,30.10,29.83,19,6,20,0.00
2014-12-28,48,35,26,40,27,17,88,74,58,30.07,29.80,17,6,23,0.00
2014-12-29,32,26,22,20,16,13,78,66,53,30.25,30.04,11,3,13,0.00
2014-12-30,29,22,15,16,11,0,72,61,50,30.37,30.25,15,4,17,0.00
2014-12-31,23,17,11,12,6,-1,77,63,42,30.25,29.92,24,7,24,0.00
2015-1-1,29,24,15,25,16,4,89,74,55,29.92,29.75,28,10,28,0.00
2015-1-2,33,25,13,23,13,4,84,59,47,30.34,29.89,25,6,26,0.00